Boone, NC

5:46 PM EDT on June 25, 2017 (GMT -0400)
Boone

Weather History for KTNB - October, 2013

Change the Weather History Date:

Sunday, October 6, 2013

  Actual Average (KGEV) Record (KGEV)
Temperature  
Mean Temperature 61 °F -  
Max Temperature 73 °F 66 °F 75 °F (1981)
Min Temperature 49 °F 41 °F 26 °F (1988)
Degree Days  
Heating Degree Days 4    
Growing Degree Days 11 (Base 50)    
Moisture  
Dew Point 55 °F    
Average Humidity 82    
Maximum Humidity 100    
Minimum Humidity 55    
Precipitation  
Precipitation 0.01 in - - ()
Sea Level Pressure  
Sea Level Pressure 30.09 in    
Wind  
Wind Speed 2 mph (SSE)    
Max Wind Speed 10 mph    
Max Gust Speed 22 mph    
Visibility 7 miles    
Events Fog , Rain    
Averages and records for this station are not official NWS values.
T = Trace of Precipitation, MM = Missing Value Source: NWS Daily Summary

Daily Weather History Graph

Daily Weather History Graph

Search for Another Location

Airport or City:

Trip Planner

Search our weather history database for the weather conditions in past years. The results will help you decide how hot, cold, wet, or windy it might be!

Date:

Astronomy

Oct. 06, 2013 Rise Set
Actual Time 7:26 AM EDT 7:02 PM EDT
Civil Twilight 7:00 AM EDT 7:28 PM EDT
Nautical Twilight 6:30 AM EDT 7:58 PM EDT
Astronomical Twilight 6:00 AM EDT 8:27 PM EDT
Moon 9:05 AM EDT (10/6) 8:05 PM EDT (10/6)
Length of Visible Light 12h 27m
Length of Day
11h 36m
Waxing Crescent, 3% of the Moon is Illuminated
Oct 6
Waxing Crescent
Oct 11
First Quarter
Oct 18
Full
Oct 26
Last Quarter
Nov 3
New

Hourly Weather History & Observations

Time (EDT) Temp. Dew Point Humidity Pressure Visibility Wind Dir Wind Speed Gust Speed Precip Events Conditions
12:15 AM 54.5 °F 54.5 °F 100% 30.18 in 2.0 mi Calm Calm - N/A   Clear
12:35 AM 54.5 °F 54.5 °F 100% 30.18 in 1.2 mi Calm Calm - N/A   Scattered Clouds
12:55 AM 54.0 °F 54.0 °F 100% 30.17 in 1.5 mi Calm Calm - N/A   Overcast
1:15 AM 54.3 °F 54.3 °F 100% 30.17 in 0.5 mi Calm Calm - N/A Fog Fog
1:35 AM 53.6 °F 53.6 °F 100% 30.16 in 1.2 mi Calm Calm - N/A   Mist
1:55 AM 53.6 °F 53.6 °F 100% 30.16 in 3.0 mi Calm Calm - N/A   Scattered Clouds
2:15 AM 53.1 °F 53.1 °F 100% 30.16 in 0.8 mi Calm Calm - N/A   Mostly Cloudy
2:35 AM 52.5 °F 52.5 °F 100% 30.15 in 0.5 mi Calm Calm - N/A Fog Fog
2:55 AM 52.7 °F 52.7 °F 100% 30.15 in 1.0 mi Calm Calm - N/A   Mostly Cloudy
3:15 AM 52.0 °F 52.0 °F 100% 30.14 in 0.8 mi Calm Calm - N/A   Scattered Clouds
3:35 AM 52.0 °F 52.0 °F 100% 30.14 in 0.5 mi Calm Calm - N/A Fog Fog
3:55 AM 52.0 °F 52.0 °F 100% 30.13 in 0.5 mi Calm Calm - N/A Fog Fog
4:15 AM 50.9 °F 50.9 °F 100% 30.12 in 0.5 mi Calm Calm - N/A Fog Fog
4:35 AM 50.9 °F 50.9 °F 100% 30.12 in 0.8 mi Calm Calm - N/A   Mist
4:55 AM 51.1 °F 51.1 °F 100% 30.12 in 0.8 mi Calm Calm - N/A   Mist
5:15 AM 51.3 °F 51.3 °F 100% 30.12 in 2.5 mi Calm Calm - N/A   Clear
5:35 AM 50.4 °F 50.4 °F 100% 30.12 in 1.0 mi Calm Calm - N/A   Mist
5:55 AM 50.9 °F 50.9 °F 100% 30.12 in 7.0 mi Calm Calm - N/A   Clear
6:15 AM 50.5 °F 50.5 °F 100% 30.13 in 5.0 mi Calm Calm - N/A   Clear
6:35 AM 50.2 °F 50.2 °F 100% 30.13 in 4.0 mi Calm Calm - N/A   Clear
6:55 AM 50.4 °F 50.4 °F 100% 30.14 in 7.0 mi Calm Calm - N/A   Clear
7:15 AM 50.0 °F 50.0 °F 100% 30.14 in 7.0 mi Calm Calm - N/A   Clear
7:35 AM 50.0 °F 50.0 °F 100% 30.14 in 4.0 mi Calm Calm - N/A   Clear
7:55 AM 49.8 °F 49.8 °F 100% 30.14 in 3.0 mi Calm Calm - N/A   Clear
8:15 AM 50.2 °F 50.2 °F 100% 30.14 in 4.0 mi Calm Calm - N/A   Clear
8:35 AM 51.8 °F 51.8 °F 100% 30.14 in 7.0 mi Calm Calm - N/A   Clear
8:55 AM 53.4 °F 53.4 °F 100% 30.14 in 7.0 mi Calm Calm - N/A   Clear
9:15 AM 55.9 °F 55.9 °F 100% 30.14 in 10.0 mi Calm Calm - N/A   Clear
9:35 AM 58.6 °F 58.6 °F 100% 30.14 in 7.0 mi Calm Calm - N/A   Clear
9:55 AM 62.2 °F 61.0 °F 96% 30.13 in 10.0 mi Calm Calm - N/A   Clear
10:15 AM 68.4 °F 59.7 °F 74% 30.13 in 10.0 mi Calm Calm - N/A   Clear
10:35 AM 69.6 °F 59.7 °F 71% 30.12 in 10.0 mi ESE 8.1 mph - N/A   Clear
10:55 AM 69.8 °F 59.2 °F 69% 30.12 in 10.0 mi SSE 3.5 mph 16.1 mph N/A   Scattered Clouds
11:15 AM 71.2 °F 58.5 °F 64% 30.12 in 10.0 mi SE 4.6 mph - N/A   Scattered Clouds
11:35 AM 70.7 °F 57.2 °F 62% 30.12 in 10.0 mi SW 6.9 mph 17.3 mph N/A   Scattered Clouds
11:55 AM 68.0 °F 57.0 °F 68% 30.12 in 10.0 mi South 6.9 mph 21.9 mph N/A   Scattered Clouds
12:15 PM 68.4 °F 56.3 °F 65% 30.12 in 10.0 mi SSE 3.5 mph - N/A   Clear
12:35 PM 69.1 °F 56.8 °F 65% 30.11 in 10.0 mi SW 4.6 mph - N/A   Clear
12:55 PM 71.1 °F 57.2 °F 61% 30.11 in 10.0 mi Calm Calm - N/A   Clear
1:15 PM 70.0 °F 57.2 °F 64% 30.10 in 10.0 mi SE 3.5 mph - N/A   Clear
1:35 PM 71.2 °F 58.3 °F 64% 30.10 in 10.0 mi South 8.1 mph - N/A   Scattered Clouds
1:55 PM 71.6 °F 58.6 °F 64% 30.08 in 10.0 mi South 3.5 mph - N/A   Scattered Clouds
2:15 PM 72.5 °F 58.3 °F 61% 30.07 in 10.0 mi Calm Calm - N/A   Clear
2:35 PM 71.4 °F 57.9 °F 62% 30.06 in 10.0 mi SE 6.9 mph - N/A   Scattered Clouds
2:55 PM 73.0 °F 58.8 °F 61% 30.06 in 10.0 mi ESE 6.9 mph - N/A   Scattered Clouds
3:15 PM 73.4 °F 57.2 °F 57% 30.05 in 10.0 mi SSW 9.2 mph 20.7 mph N/A   Scattered Clouds
3:35 PM 71.6 °F 55.2 °F 56% 30.05 in 10.0 mi SSW 10.4 mph 19.6 mph N/A   Scattered Clouds
3:55 PM 72.3 °F 55.9 °F 56% 30.05 in 10.0 mi South 5.8 mph - N/A   Scattered Clouds
4:15 PM 72.1 °F 55.6 °F 56% 30.05 in 10.0 mi SSW 8.1 mph - N/A   Scattered Clouds
4:35 PM 71.8 °F 54.9 °F 55% 30.04 in 10.0 mi South 9.2 mph 19.6 mph N/A   Scattered Clouds
4:55 PM 71.6 °F 54.9 °F 55% 30.03 in 10.0 mi SSW 5.8 mph 16.1 mph N/A   Clear
5:15 PM 71.6 °F 55.6 °F 57% 30.04 in 10.0 mi SSW 4.6 mph - N/A   Scattered Clouds
5:35 PM 70.2 °F 55.8 °F 60% 30.03 in 10.0 mi South 3.5 mph - N/A   Scattered Clouds
5:55 PM 68.0 °F 59.0 °F 73% 30.03 in 10.0 mi Calm Calm - N/A   Scattered Clouds
6:15 PM 67.8 °F 59.2 °F 74% 30.03 in 10.0 mi ESE 3.5 mph - N/A   Scattered Clouds
6:35 PM 67.1 °F 59.0 °F 75% 30.03 in 10.0 mi SE 3.5 mph - N/A   Mostly Cloudy
6:55 PM 65.8 °F 58.1 °F 76% 30.04 in 10.0 mi ESE 3.5 mph - N/A   Scattered Clouds
7:15 PM 64.8 °F 58.1 °F 79% 30.03 in 10.0 mi SE 4.6 mph - N/A   Scattered Clouds
7:35 PM 64.4 °F 58.1 °F 80% 30.03 in 10.0 mi SE 4.6 mph - N/A   Clear
7:55 PM 64.4 °F 57.7 °F 79% 30.03 in 10.0 mi ESE 5.8 mph - N/A   Clear
8:15 PM 64.4 °F 57.6 °F 78% 30.03 in 10.0 mi ESE 5.8 mph - N/A   Clear
8:35 PM 64.4 °F 57.4 °F 78% 30.03 in 10.0 mi Calm Calm - N/A   Clear
8:55 PM 64.4 °F 57.2 °F 77% 30.02 in 10.0 mi ESE 10.4 mph - N/A   Clear
9:15 PM 64.2 °F 56.8 °F 77% 30.02 in 10.0 mi East 3.5 mph - N/A   Clear
9:35 PM 63.9 °F 57.2 °F 79% 30.02 in 10.0 mi Calm Calm - N/A   Scattered Clouds
9:55 PM 63.9 °F 57.2 °F 79% 30.02 in 10.0 mi Calm Calm - N/A   Scattered Clouds
10:15 PM 63.3 °F 57.0 °F 80% 30.02 in 10.0 mi Calm Calm - N/A   Scattered Clouds
10:35 PM 63.3 °F 57.2 °F 80% 30.02 in 10.0 mi ESE 3.5 mph - N/A   Clear
10:55 PM 63.5 °F 57.2 °F 80% 30.01 in 10.0 mi SE 3.5 mph - N/A   Clear
11:15 PM 64.2 °F 57.6 °F 79% 30.00 in 10.0 mi SE 3.5 mph - N/A   Scattered Clouds
11:35 PM 65.3 °F 57.7 °F 76% 30.01 in 10.0 mi SW 4.6 mph - N/A   Scattered Clouds
11:55 PM 63.7 °F 60.1 °F 88% 30.01 in 7.0 mi SW 6.9 mph - 0.01 in Rain Light Rain